Regional Weather Roundup
Issued by NWS

Home | Current Version | Previous Version | Graphics & Text | Print | Product List | Glossary On
Versions: 1 2 3 4 5 6 7 8 9 10 11 12 13 14 15 16 17 18 19 20 21 22 23 24 25 26 27 28 29 30 31 32 33 34 35 36 37 38 39 40 41 42 43 44 45 46 47 48 49 50
000
ASUS45 KPSR 260210
RWRAZ

ARIZONA HOURLY REGIONAL WEATHER ROUNDUP
NATIONAL WEATHER SERVICE PHOENIX AZ
700 PM MST MON MAY 25 2015

NOTE: FAIR INDICATES FEW OR NO CLOUDS BELOW 12,000 FEET WITH NO
SIGNIFICANT WEATHER AND/OR OBSTRUCTIONS TO VISIBILITY.

AZZ001>003-036-260300-
NORTHWEST ARIZONA

CITY           SKY/WX    TMP DP  RH WIND       PRES   REMARKS
BULLHEAD CITY  CLEAR     91  39  16 S18       29.75R
KINGMAN        CLEAR     77  37  23 SW9       29.92R
$$

AZZ004>008-015-016-018-260300-
NORTH CENTRAL ARIZONA

CITY           SKY/WX    TMP DP  RH WIND       PRES   REMARKS
GRAND CANYON   CLEAR     61  37  41 VRB5      30.09R
WILLIAMS       CLOUDY    59  41  51 SW7       30.16S
PRESCOTT       MOCLDY    70  34  26 W9        30.02S
FLAGSTAFF      PTCLDY    53  44  71 SW14      30.13R
PAYSON         PTCLDY    68  39  34 VRB3      30.06S
PAGE           CLEAR     71  43  36 SE5       29.93R
$$

AZZ009>014-017-260300-
NORTHEAST ARIZONA

CITY           SKY/WX    TMP DP  RH WIND       PRES   REMARKS
WINSLOW        PTCLDY    66  42  41 W13       30.01R
SAINT JOHNS    MOCLDY    61  40  45 N12       30.06R
WINDOW ROCK    CLOUDY    54  45  71 S5        30.10R
SHOW LOW       LGT RAIN  55  41  58 NW13G18   30.13R
$$

AZZ023-260300-
GREATER PHOENIX AREA

CITY           SKY/WX    TMP DP  RH WIND       PRES   REMARKS
PHOENIX        PTCLDY    88  37  16 W8        29.81S
BUCKEYE        CLEAR     86  37  17 SW6       29.83S
GLENDALE       PTCLDY    90  39  17 S8        29.83S
DEER VALLEY    CLEAR     85  38  18 SW13      29.83S
SCOTTSDALE     CLEAR     86  38  18 SW6       29.85S
MESA-FALCON    PTCLDY    86  37  17 W6        29.84S
MESA-GATEWAY   PTCLDY    86  39  19 VRB3      29.86R
CHANDLER       PTCLDY    88  39  18 W6        29.83S
$$

AZZ027-028-260300-
SOUTHWEST MARICOPA COUNTY AND PINAL COUNTY

CITY           SKY/WX    TMP DP  RH WIND       PRES   REMARKS
CASA GRANDE    CLEAR     86  39  19 NW7       29.83F
$$

AZZ503-504-507>509-260300-
SOUTHEAST ARIZONA

CITY           SKY/WX    TMP DP  RH WIND       PRES   REMARKS
TUCSON         CLEAR     84  34  16 N9        29.91R
DAVIS-MONTHAN  CLEAR     82  35  18 N10       29.90R
RYAN FIELD       N/A     84  36  17 NW17      29.90R
NOGALES        CLEAR     77  26  15 SW9       29.98R
DOUGLAS        PTCLDY    77  26  15 W6        29.97R
SAFFORD        CLEAR     80  32  17 NW17      29.89R
$$

AZZ020-021-025-026-031-260300-
SOUTHWEST ARIZONA

CITY           SKY/WX    TMP DP  RH WIND       PRES   REMARKS
YUMA           CLEAR     87  38  17 S13       29.81R
$$

CAZ031-033-041-043-047-048-061-260300-
SOUTHERN CALIFORNIA

CITY           SKY/WX    TMP DP  RH WIND       PRES   REMARKS
DOWNTOWN L.A.  CLEAR     65  55  70 VRB3      29.95R
L.A. AIRPORT   PTCLDY    61  56  83 W12       29.96S
SAN DIEGO      CLOUDY    63  54  72 W7        29.99R
BURBANK        CLEAR     66  53  63 S10       29.94R
ONTARIO        MOCLDY    67  54  63 SW12      29.93S
RIVERSIDE      PTCLDY    68  55  63 W12       29.93R
PALM SPRINGS   PTCLDY    87  50  27 NW17G29   29.80S
EL CENTRO NAS  CLEAR     88  43  20 SE12      29.78S
IMPERIAL       CLEAR     88  40  18 SE16      29.76S
BLYTHE         CLEAR     89  40  17 S12       29.78R
NEEDLES        CLEAR     92  37  14 SW16      29.77R
$$

NVZ020-UTZ003-260300-
SOUTHERN NEVADA-UTAH

CITY           SKY/WX    TMP DP  RH WIND       PRES   REMARKS
LAS VEGAS      PTCLDY    85  44  23 SE3       29.76F
SALT LAKE CITY CLOUDY    68  44  42 N7        29.93S
$$

NMZ009-TXZ055-260300-
NEW MEXICO-WEST TEXAS

CITY           SKY/WX    TMP DP  RH WIND       PRES   REMARKS
ALBUQUERQUE    CLOUDY    60  47  61 S7        30.05R
EL PASO        PTCLDY    80  25  13 W14       29.92R
$$


........................KEY........................
SKY/WX - SKY CONDITION/WEATHER
TMP    - TEMPERATURE IN FAHRENHEIT
DP     - DEW POINT IN FAHRENHEIT
RH     - RELATIVE HUMIDITY IN PERCENT
WIND   - DIRECTION AND SPEED IN MILES PER HOUR (MPH)
VRB    - VARIABLE WIND DIRECTION
PRES   - MEAN SEA LEVEL PRESSURE IN INCHES OF MERCURY
         F - FALLING PRESSURE   R - RISING PRESSURE
         S - STEADY PRESSURE
VSB    - VISIBILITY IN MILES
HX     - HEAT INDEX IN FAHRENHEIT
WCI    - WIND CHILL INDEX IN FAHRENHEIT
TC     - TEMPERATURE IN CELSIUS WHICH IS ALSO KNOWN AS
         TEMPERATURE IN CENTIGRADE
AFB    - AIR FORCE BASE
         LUKE AFB IS LUKE AIR FORCE BASE
         DAVIS-MONTHAN IS DAVIS-MONTHAN AIR FORCE BASE
NAS    - NAVAL AIR STATION
         EL CENTRO NAS IS EL CENTRO NAVAL AIR STATION
N/A    - NOT AVAILABLE




USA.gov is the U.S. government's official web portal to all federal, state and local government web resources and services.